Total_Precipitation_Accumulation
-0.10 -0.13 -0.13 -0.18 -0.22 -0.22 -0.26 -0.30 -0.33 -0.33 -0.32 -0.33 -0.32 -0.29 -0.29 -0.29 -0.27 -0.27 -0.27 -0.30 -0.32 -0.30 -0.30 -0.30 -0.30 -0.31 -0.31 -0.31 -0.40 -0.40 -0.50 -0.67 -0.76 -0.93 -0.93 -1.02 -0.81 -0.58 -0.58 -0.43 -0.34 -0.19 -0.19 -0.15 -0.31 -0.31 -0.59 -0.87 -0.79 -0.79 -0.96 -0.74 -0.54 -0.30 -0.30 -0.21 -0.23 -0.27 -0.27 -0.21 -0.14 -0.01 -0.01 0.09 0.20 0.20 0.29 0.42 0.47
-0.24 -0.31 -0.31 -0.37 -0.42 -0.42 -0.46 -0.48 -0.52 -0.52 -0.47 -0.43 -0.40 -0.40 -0.40 -0.39 -0.36 -0.30 -0.30 -0.25 -0.24 -0.24 -0.24 -0.23 -0.26 -0.26 -0.26 -0.29 -0.37 -0.37 -0.39 -0.39 -0.51 -0.75 -0.75 -1.08 -1.14 -0.99 -0.99 -0.79 -0.57 -0.32 -0.32 -0.26 -0.25 -0.25 -0.39 -0.66 -1.07 -1.07 -1.15 -1.02 -0.84 -0.71 -0.71 -0.29 -0.27 -0.28 -0.28 -0.28 -0.22 -0.20 -0.20 -0.15 -0.00 -0.00 0.12 0.18 0.30
-0.21 -0.22 -0.22 -0.26 -0.28 -0.28 -0.29 -0.29 -0.35 -0.35 -0.34 -0.34 -0.34 -0.32 -0.32 -0.30 -0.25 -0.21 -0.21 -0.19 -0.17 -0.17 -0.17 -0.21 -0.23 -0.23 -0.23 -0.25 -0.28 -0.28 -0.34 -0.34 -0.37 -0.44 -0.44 -0.82 -1.05 -1.22 -1.22 -1.20 -1.06 -0.57 -0.57 -0.41 -0.41 -0.41 -0.40 -0.46 -0.93 -0.93 -1.13 -1.18 -1.09 -0.98 -0.98 -0.51 -0.40 -0.39 -0.39 -0.31 -0.32 -0.24 -0.24 -0.15 -0.06 -0.06 -0.01 0.03 0.18
-0.16 -0.15 -0.15 -0.14 -0.15 -0.15 -0.16 -0.20 -0.24 -0.24 -0.28 -0.29 -0.28 -0.27 -0.27 -0.27 -0.26 -0.23 -0.23 -0.22 -0.20 -0.18 -0.18 -0.18 -0.18 -0.19 -0.19 -0.24 -0.22 -0.22 -0.27 -0.33 -0.42 -0.47 -0.47 -0.50 -0.69 -0.92 -0.92 -1.13 -1.22 -1.11 -1.11 -0.78 -0.57 -0.57 -0.49 -0.55 -0.59 -0.59 -0.94 -1.10 -1.16 -1.12 -1.12 -0.96 -0.74 -0.64 -0.64 -0.74 -0.56 -0.40 -0.40 -0.21 -0.16 -0.16 -0.13 -0.09 -0.09
-0.19 -0.17 -0.17 -0.14 -0.14 -0.14 -0.15 -0.15 -0.17 -0.17 -0.23 -0.22 -0.20 -0.20 -0.20 -0.20 -0.24 -0.22 -0.22 -0.22 -0.23 -0.23 -0.23 -0.21 -0.19 -0.19 -0.19 -0.22 -0.21 -0.21 -0.23 -0.26 -0.26 -0.33 -0.33 -0.44 -0.53 -0.59 -0.59 -0.76 -1.01 -1.19 -1.19 -1.17 -0.98 -0.98 -0.71 -0.91 -0.81 -0.81 -0.79 -0.89 -1.02 -1.08 -1.08 -1.04 -1.06 -0.90 -0.90 -1.07 -0.89 -0.63 -0.63 -0.45 -0.28 -0.28 -0.24 -0.19 -0.22
-0.26 -0.25 -0.25 -0.18 -0.18 -0.18 -0.18 -0.18 -0.19 -0.19 -0.20 -0.19 -0.17 -0.18 -0.18 -0.20 -0.21 -0.22 -0.22 -0.24 -0.27 -0.26 -0.26 -0.23 -0.24 -0.26 -0.26 -0.26 -0.26 -0.26 -0.26 -0.25 -0.21 -0.18 -0.18 -0.23 -0.39 -0.44 -0.44 -0.46 -0.54 -0.78 -0.78 -1.09 -1.22 -1.22 -1.27 -1.29 -1.24 -1.24 -1.09 -0.88 -0.91 -0.93 -0.93 -1.01 -1.26 -1.23 -1.23 -1.36 -1.10 -0.90 -0.90 -0.73 -0.35 -0.35 -0.29 -0.28 -0.29
-0.32 -0.31 -0.31 -0.27 -0.23 -0.23 -0.24 -0.24 -0.21 -0.21 -0.21 -0.21 -0.23 -0.23 -0.23 -0.21 -0.23 -0.24 -0.24 -0.25 -0.26 -0.27 -0.27 -0.25 -0.30 -0.30 -0.30 -0.31 -0.34 -0.34 -0.36 -0.31 -0.25 -0.19 -0.19 -0.14 -0.14 -0.31 -0.31 -0.33 -0.34 -0.40 -0.40 -0.60 -1.23 -1.23 -1.20 -1.37 -1.49 -1.49 -1.35 -1.01 -0.90 -0.90 -0.90 -1.02 -1.14 -1.07 -1.07 -1.06 -1.06 -1.04 -1.04 -0.94 -0.71 -0.71 -0.38 -0.31 -0.34
-0.45 -0.42 -0.42 -0.39 -0.35 -0.35 -0.34 -0.34 -0.30 -0.30 -0.24 -0.27 -0.28 -0.27 -0.27 -0.26 -0.27 -0.29 -0.29 -0.27 -0.27 -0.36 -0.36 -0.36 -0.39 -0.38 -0.38 -0.39 -0.40 -0.40 -0.42 -0.35 -0.29 -0.20 -0.20 -0.13 -0.09 -0.18 -0.18 -0.24 -0.28 -0.29 -0.29 -0.32 -0.80 -0.80 -0.72 -1.19 -1.50 -1.50 -1.45 -1.28 -0.95 -0.83 -0.83 -0.84 -0.97 -0.87 -0.87 -0.90 -0.87 -0.91 -0.91 -0.97 -0.94 -0.94 -0.85 -0.43 -0.65
-0.68 -0.69 -0.69 -0.55 -0.51 -0.51 -0.51 -0.48 -0.39 -0.39 -0.29 -0.29 -0.30 -0.31 -0.31 -0.29 -0.27 -0.29 -0.29 -0.32 -0.37 -0.35 -0.35 -0.39 -0.47 -0.50 -0.50 -0.52 -0.55 -0.55 -0.56 -0.46 -0.35 -0.24 -0.24 -0.15 -0.12 -0.15 -0.15 -0.20 -0.24 -0.26 -0.26 -0.28 -0.35 -0.35 -0.50 -0.71 -1.09 -1.09 -1.35 -1.33 -1.11 -0.97 -0.97 -0.84 -0.86 -0.92 -0.92 -0.90 -0.85 -0.82 -0.82 -0.85 -0.94 -0.94 -0.98 -0.89 -1.03
-0.67 -0.70 -0.70 -0.72 -0.62 -0.62 -0.57 -0.53 -0.43 -0.43 -0.30 -0.29 -0.30 -0.29 -0.29 -0.27 -0.21 -0.25 -0.25 -0.30 -0.31 -0.32 -0.32 -0.40 -0.49 -0.54 -0.54 -0.60 -0.64 -0.64 -0.63 -0.55 -0.49 -0.40 -0.40 -0.31 -0.25 -0.20 -0.20 -0.25 -0.29 -0.32 -0.32 -0.34 -0.38 -0.38 -0.48 -0.57 -0.75 -0.75 -0.93 -1.09 -1.15 -1.10 -1.10 -1.05 -1.16 -1.10 -1.10 -0.96 -0.86 -0.84 -0.84 -0.81 -0.83 -0.83 -0.85 -0.81 -0.83
-0.58 -0.65 -0.65 -0.62 -0.59 -0.59 -0.54 -0.44 -0.36 -0.36 -0.29 -0.27 -0.28 -0.26 -0.26 -0.21 -0.19 -0.20 -0.20 -0.20 -0.22 -0.28 -0.28 -0.39 -0.48 -0.52 -0.52 -0.55 -0.57 -0.57 -0.61 -0.65 -0.59 -0.52 -0.52 -0.46 -0.40 -0.36 -0.36 -0.34 -0.36 -0.39 -0.39 -0.41 -0.43 -0.43 -0.45 -0.52 -0.55 -0.55 -0.59 -0.68 -0.84 -0.99 -0.99 -1.10 -1.06 -1.08 -1.08 -1.01 -0.90 -0.84 -0.84 -0.81 -0.79 -0.79 -0.79 -0.77 -0.77
-0.58 -0.59 -0.59 -0.49 -0.51 -0.51 -0.51 -0.48 -0.40 -0.40 -0.29 -0.24 -0.21 -0.19 -0.19 -0.18 -0.19 -0.18 -0.18 -0.15 -0.17 -0.24 -0.24 -0.34 -0.50 -0.51 -0.51 -0.54 -0.56 -0.56 -0.61 -0.62 -0.60 -0.57 -0.57 -0.53 -0.50 -0.47 -0.47 -0.45 -0.42 -0.39 -0.39 -0.44 -0.48 -0.48 -0.48 -0.44 -0.44 -0.44 -0.44 -0.43 -0.50 -0.67 -0.67 -0.96 -0.89 -0.96 -0.96 -0.96 -0.91 -0.87 -0.87 -0.75 -0.76 -0.76 -0.82 -0.76 -0.76
-0.55 -0.51 -0.51 -0.45 -0.44 -0.44 -0.46 -0.48 -0.42 -0.42 -0.32 -0.23 -0.17 -0.15 -0.15 -0.15 -0.16 -0.17 -0.17 -0.15 -0.15 -0.19 -0.19 -0.26 -0.34 -0.38 -0.38 -0.43 -0.51 -0.51 -0.61 -0.67 -0.66 -0.64 -0.64 -0.60 -0.57 -0.54 -0.54 -0.49 -0.43 -0.44 -0.44 -0.46 -0.48 -0.48 -0.49 -0.48 -0.41 -0.41 -0.40 -0.43 -0.48 -0.52 -0.52 -0.55 -0.68 -0.77 -0.77 -0.80 -0.82 -0.82 -0.82 -0.78 -0.71 -0.71 -0.69 -0.74 -0.81
-0.42 -0.41 -0.41 -0.39 -0.39 -0.39 -0.42 -0.44 -0.41 -0.41 -0.33 -0.23 -0.15 -0.13 -0.13 -0.13 -0.15 -0.13 -0.13 -0.14 -0.14 -0.15 -0.15 -0.17 -0.18 -0.26 -0.26 -0.38 -0.45 -0.45 -0.50 -0.57 -0.63 -0.71 -0.71 -0.70 -0.67 -0.60 -0.60 -0.56 -0.44 -0.50 -0.50 -0.48 -0.49 -0.49 -0.51 -0.48 -0.45 -0.45 -0.42 -0.42 -0.42 -0.48 -0.48 -0.44 -0.50 -0.62 -0.62 -0.66 -0.67 -0.67 -0.67 -0.68 -0.70 -0.70 -0.72 -0.76 -0.72
-0.31 -0.29 -0.29 -0.28 -0.29 -0.29 -0.33 -0.38 -0.42 -0.42 -0.28 -0.21 -0.14 -0.10 -0.10 -0.10 -0.10 -0.10 -0.10 -0.09 -0.11 -0.09 -0.09 -0.08 -0.10 -0.19 -0.19 -0.27 -0.37 -0.37 -0.45 -0.51 -0.55 -0.57 -0.57 -0.58 -0.59 -0.59 -0.59 -0.60 -0.59 -0.60 -0.60 -0.52 -0.46 -0.46 -0.44 -0.46 -0.47 -0.47 -0.46 -0.45 -0.41 -0.42 -0.42 -0.45 -0.44 -0.48 -0.48 -0.53 -0.56 -0.56 -0.56 -0.59 -0.62 -0.62 -0.63 -0.68 -0.62
-0.20 -0.16 -0.16 -0.15 -0.16 -0.16 -0.22 -0.34 -0.38 -0.38 -0.20 -0.14 -0.08 -0.05 -0.05 -0.03 -0.03 -0.04 -0.04 -0.06 -0.05 -0.05 -0.05 -0.05 -0.05 -0.08 -0.08 -0.14 -0.26 -0.26 -0.37 -0.44 -0.47 -0.45 -0.45 -0.46 -0.48 -0.50 -0.50 -0.47 -0.46 -0.62 -0.62 -0.60 -0.52 -0.52 -0.46 -0.40 -0.39 -0.39 -0.41 -0.44 -0.41 -0.39 -0.39 -0.40 -0.42 -0.42 -0.42 -0.44 -0.47 -0.53 -0.53 -0.59 -0.63 -0.63 -0.63 -0.66 -0.64
-0.07 -0.06 -0.06 -0.05 -0.06 -0.06 -0.09 -0.21 -0.30 -0.30 -0.23 -0.14 -0.07 -0.04 -0.04 -0.02 -0.01 -0.03 -0.03 -0.03 -0.03 -0.03 -0.03 -0.03 -0.03 -0.02 -0.02 -0.03 -0.09 -0.09 -0.21 -0.30 -0.36 -0.40 -0.40 -0.45 -0.46 -0.45 -0.45 -0.42 -0.44 -0.43 -0.43 -0.55 -0.56 -0.56 -0.54 -0.50 -0.44 -0.44 -0.38 -0.39 -0.40 -0.35 -0.35 -0.36 -0.39 -0.41 -0.41 -0.41 -0.42 -0.44 -0.44 -0.46 -0.43 -0.43 -0.44 -0.47 -0.55
-0.03 -0.01 -0.01 -0.01 -0.00 -0.00 -0.01 -0.06 -0.17 -0.17 -0.25 -0.27 -0.30 -0.23 -0.23 -0.11 -0.03 -0.00 -0.00 -0.00 -0.00 -0.01 -0.01 -0.01 -0.01 -0.01 -0.01 -0.03 -0.03 -0.03 -0.03 -0.04 -0.06 -0.10 -0.10 -0.24 -0.29 -0.19 -0.19 -0.24 -0.29 -0.28 -0.28 -0.29 -0.36 -0.36 -0.42 -0.49 -0.52 -0.52 -0.49 -0.46 -0.46 -0.41 -0.41 -0.39 -0.36 -0.36 -0.36 -0.36 -0.39 -0.42 -0.42 -0.42 -0.42 -0.42 -0.43 -0.45 -0.45
-0.02 -0.02 -0.02 -0.01 -0.01 -0.01 -0.01 -0.01 -0.04 -0.04 -0.11 -0.14 -0.18 -0.23 -0.23 -0.21 -0.16 -0.07 -0.07 -0.05 -0.04 -0.01 -0.01 -0.01 -0.00 -0.00 -0.00 -0.00 -0.02 -0.02 -0.04 -0.06 -0.07 -0.05 -0.05 -0.07 -0.08 -0.11 -0.11 -0.14 -0.15 -0.16 -0.16 -0.24 -0.23 -0.23 -0.26 -0.31 -0.38 -0.38 -0.44 -0.48 -0.43 -0.45 -0.45 -0.45 -0.46 -0.44 -0.44 -0.41 -0.39 -0.39 -0.39 -0.43 -0.41 -0.41 -0.39 -0.40 -0.41
-0.01 -0.01 -0.01 -0.02 -0.01 -0.01 -0.01 -0.01 -0.01 -0.01 -0.02 -0.04 -0.05 -0.07 -0.07 -0.09 -0.11 -0.12 -0.12 -0.14 -0.13 -0.12 -0.12 -0.07 -0.02 -0.00 -0.00 0.00 -0.00 -0.00 -0.04 -0.11 -0.18 -0.17 -0.17 -0.13 -0.12 -0.09 -0.09 -0.07 -0.07 -0.09 -0.09 -0.14 -0.13 -0.13 -0.19 -0.20 -0.20 -0.20 -0.27 -0.37 -0.24 -0.31 -0.31 -0.41 -0.45 -0.47 -0.47 -0.49 -0.48 -0.46 -0.46 -0.52 -0.49 -0.49 -0.46 -0.43 -0.39
-0.00 0.00 0.00 -0.01 -0.01 -0.01 -0.01 -0.01 -0.01 -0.01 -0.00 -0.00 -0.00 -0.00 -0.00 -0.01 -0.03 -0.04 -0.04 -0.08 -0.08 -0.08 -0.08 -0.08 -0.08 -0.05 -0.05 -0.04 -0.01 -0.01 -0.01 -0.02 -0.04 -0.09 -0.09 0.00 0.02 0.05 0.05 0.06 0.06 0.06 0.06 0.05 0.02 0.02 -0.03 -0.12 -0.16 -0.16 -0.16 -0.13 -0.16 -0.23 -0.23 -0.27 -0.40 -0.46 -0.46 -0.48 -0.51 -0.53 -0.53 -0.50 -0.53 -0.53 -0.54 -0.53 -0.50
-0.00 -0.00 -0.00 0.00 -0.00 -0.00 -0.00 -0.01 -0.01 -0.01 -0.00 -0.00 0.00 0.00 0.00 -0.00 0.00 -0.01 -0.01 -0.01 -0.02 -0.03 -0.03 -0.04 -0.04 -0.02 -0.02 -0.02 -0.01 -0.01 -0.01 -0.01 -0.02 -0.00 -0.00 -0.01 0.02 0.08 0.08 0.10 0.11 0.11 0.11 0.10 0.08 0.08 0.06 0.04 -0.01 -0.01 -0.04 0.06 0.02 -0.05 -0.05 -0.12 -0.19 -0.35 -0.35 -0.40 -0.48 -0.49 -0.49 -0.42 -0.49 -0.49 -0.51 -0.54 -0.54
0.00 0.00 0.00 0.00 0.00 0.00 0.00 -0.00 -0.00 -0.00 -0.00 -0.00 -0.00 -0.00 -0.00 -0.00 -0.00 0.00 0.00 -0.01 -0.01 -0.00 -0.00 -0.00 -0.00 -0.00 -0.00 -0.00 0.00 0.00 0.00 0.00 0.00 0.00 0.00 0.00 0.00 0.00 0.00 0.04 0.06 0.07 0.07 0.07 0.07 0.07 0.06 0.05 0.04 0.04 0.02 0.03 0.05 0.06 0.06 0.04 -0.00 -0.09 -0.09 -0.22 -0.30 -0.18 -0.18 -0.28 -0.36 -0.36 -0.41 -0.46 -0.50
0.00 0.00 0.00 0.00 0.00 0.00 0.00 0.00 -0.00 -0.00 -0.00 -0.00 -0.00 -0.00 -0.00 -0.00 -0.00 0.00 0.00 0.00 0.00 0.00 0.00 0.00 0.00 0.00 0.00 0.00 0.00 0.00 0.00 0.00 0.00 0.00 0.00 0.00 0.00 0.00 0.00 0.01 0.00 0.00 0.00 0.00 0.01 0.01 0.00 0.01 0.01 0.01 -0.03 -0.03 0.00 -0.00 -0.00 0.03 0.02 0.02 0.02 0.01 -0.10 -0.03 -0.03 -0.07 -0.14 -0.14 -0.24 -0.32 -0.36
0.00 0.00 0.00 0.00 0.00 0.00 0.00 0.00 0.00 0.00 0.00 0.00 0.00 -0.00 -0.00 -0.01 0.00 0.00 0.00 0.00 0.00 0.00 0.00 0.00 0.00 0.00 0.00 0.00 0.00 0.00 0.00 0.00 0.00 0.00 0.00 0.00 0.00 0.01 0.01 0.01 0.01 0.00 0.00 0.00 0.00 0.00 0.00 -0.01 -0.01 -0.01 -0.01 -0.02 -0.03 -0.00 -0.00 -0.00 -0.00 -0.00 -0.00 -0.00 0.01 -0.00 -0.00 -0.01 -0.02 -0.02 -0.04 -0.08 -0.15
0.00 0.00 0.00 0.00 0.00 0.00 0.00 0.00 0.00 0.00 0.00 0.00 0.00 0.00 0.00 0.00 0.00 0.00 0.00 0.00 -0.01 0.00 0.00 0.00 -0.00 0.00 0.00 0.00 -0.01 -0.01 0.00 0.00 0.00 0.00 0.00 0.00 0.00 0.01 0.01 0.02 0.02 0.00 0.00 0.00 0.00 0.00 0.00 0.00 0.00 0.00 -0.00 -0.01 -0.01 -0.01 -0.01 -0.01 -0.02 -0.01 -0.01 -0.01 -0.01 -0.00 -0.00 -0.00 -0.00 -0.00 -0.00 -0.01 -0.02
0.00 0.00 0.00 0.00 0.00 0.00 0.00 0.00 0.00 0.00 0.00 0.00 0.00 0.00 0.00 0.00 0.00 0.00 0.00 0.00 0.00 0.00 0.00 0.00 -0.00 -0.01 -0.01 -0.00 -0.00 -0.00 -0.00 0.00 0.00 0.00 0.00 0.00 0.00 0.00 0.00 0.01 0.02 0.01 0.01 0.00 0.00 0.00 0.00 0.00 0.00 0.00 -0.00 -0.00 -0.01 -0.02 -0.02 -0.01 -0.01 -0.01 -0.01 -0.01 -0.01 -0.00 -0.00 -0.00 -0.00 -0.00 -0.00 -0.00 -0.00
0.00 0.00 0.00 0.00 0.00 0.00 0.00 0.00 0.00 0.00 0.00 0.00 0.00 0.00 0.00 0.00 0.00 0.00 0.00 0.00 0.00 0.00 0.00 0.00 0.00 0.00 0.00 0.00 -0.00 -0.00 -0.00 0.00 0.00 0.00 0.00 0.00 0.00 0.00 0.00 0.00 0.02 0.07 0.07 0.01 0.01 0.01 0.00 0.00 0.00 0.00 -0.00 -0.00 -0.00 -0.01 -0.01 -0.01 -0.01 -0.01 -0.01 -0.01 -0.01 -0.01 -0.01 -0.01 -0.01 -0.01 -0.00 -0.00 -0.00
0.00 0.00 0.00 0.00 0.00 0.00 0.00 0.00 0.00 0.00 0.00 0.00 0.00 0.00 0.00 0.00 0.00 0.00 0.00 0.00 0.00 0.00 0.00 0.00 0.00 0.00 0.00 0.00 0.00 0.00 0.00 0.00 0.00 0.00 0.00 0.00 0.00 0.00 0.00 0.00 0.01 0.06 0.06 0.01 0.01 0.01 0.00 0.00 0.00 0.00 -0.00 -0.00 -0.00 -0.00 -0.00 -0.02 -0.02 -0.02 -0.02 -0.02 -0.01 -0.01 -0.01 -0.01 -0.01 -0.01 -0.01 -0.01 -0.00
0.00 0.00 0.00 0.00 0.00 0.00 0.00 0.00 0.00 0.00 0.00 0.00 0.00 0.00 0.00 0.00 0.00 0.00 0.00 0.00 0.00 0.00 0.00 0.00 0.00 0.00 0.00 0.00 0.00 0.00 0.00 0.00 0.00 0.00 0.00 0.00 0.00 0.00 0.00 0.00 0.01 0.04 0.04 0.04 0.01 0.01 0.00 0.00 0.00 0.00 -0.00 -0.00 -0.00 -0.00 -0.00 -0.00 -0.01 -0.01 -0.01 -0.01 -0.01 -0.01 -0.01 -0.01 -0.01 -0.01 -0.01 -0.01 -0.01
0.00 0.00 0.00 0.00 0.00 0.00 0.00 0.00 0.00 0.00 0.00 0.00 0.00 0.00 0.00 0.00 0.00 0.00 0.00 0.00 0.00 0.00 0.00 0.00 0.00 0.00 0.00 0.00 0.00 0.00 0.00 0.00 0.00 -0.00 -0.00 -0.00 0.00 -0.00 -0.00 0.00 0.00 0.03 0.03 0.04 0.01 0.01 0.00 0.00 0.00 0.00 0.00 -0.00 -0.00 -0.00 -0.00 -0.00 -0.00 -0.01 -0.01 -0.01 -0.01 -0.01 -0.01 -0.01 -0.00 -0.00 -0.00 -0.01 -0.01
0.00 0.00 0.00 0.00 0.00 0.00 0.00 0.00 0.00 0.00 0.00 0.00 0.00 0.00 0.00 0.00 0.00 0.00 0.00 0.00 0.00 0.00 0.00 0.00 0.00 0.00 0.00 0.00 0.00 0.00 0.00 0.00 0.00 0.00 0.00 -0.00 -0.00 0.00 0.00 0.00 0.00 0.02 0.02 0.04 0.02 0.02 0.01 0.00 0.00 0.00 0.00 0.00 -0.00 -0.00 -0.00 -0.00 -0.00 -0.01 -0.01 -0.00 -0.00 -0.00 -0.00 -0.00 -0.00 -0.00 -0.01 -0.01 -0.01
0.00 0.00 0.00 0.00 0.00 0.00 0.00 0.00 0.00 0.00 0.00 0.00 0.00 0.00 0.00 0.00 0.00 0.00 0.00 0.00 0.00 0.00 0.00 0.00 0.00 0.00 0.00 0.00 0.00 0.00 0.00 0.00 0.00 0.00 0.00 0.00 0.00 0.00 0.00 0.00 0.00 0.02 0.02 0.03 0.02 0.02 0.01 0.00 0.00 0.00 0.00 0.00 -0.00 -0.00 -0.00 -0.00 -0.00 -0.00 -0.00 -0.00 -0.00 -0.00 -0.00 -0.00 -0.01 -0.01 -0.01 -0.01 -0.00
0.00 0.00 0.00 0.00 0.00 0.00 0.00 0.00 0.00 0.00 0.00 0.00 0.00 0.00 0.00 0.00 0.00 0.00 0.00 0.00 0.00 0.00 0.00 0.00 0.00 0.00 0.00 0.00 0.00 0.00 0.00 0.00 0.00 0.00 0.00 0.00 0.00 0.00 0.00 0.00 0.00 0.01 0.01 0.03 0.03 0.03 0.02 0.02 0.00 0.00 0.00 -0.00 -0.00 -0.00 -0.00 -0.00 -0.00 -0.00 -0.00 -0.00 -0.00 -0.00 -0.00 -0.00 -0.00 -0.00 -0.00 -0.00 -0.00
-0.00 -0.00 -0.00 0.00 0.00 0.00 0.00 0.00 0.00 0.00 0.00 0.00 0.00 0.00 0.00 0.00 0.00 0.00 0.00 0.00 0.00 0.00 0.00 0.00 0.00 0.00 0.00 0.00 0.00 0.00 0.00 0.00 0.00 0.00 0.00 0.00 0.00 0.00 0.00 0.00 0.00 0.01 0.01 0.04 0.04 0.04 0.03 0.03 0.02 0.02 0.00 0.00 -0.00 -0.00 -0.00 -0.00 -0.00 -0.00 -0.00 -0.00 -0.00 -0.00 -0.00 -0.00 -0.00 -0.00 -0.00 -0.00 -0.00
-0.00 -0.00 -0.00 -0.00 0.00 0.00 0.00 0.00 0.00 0.00 0.00 0.00 0.00 0.00 0.00 0.00 0.00 0.00 0.00 0.00 0.00 0.00 0.00 0.00 0.00 0.00 0.00 0.00 0.00 0.00 0.00 0.00 0.00 0.00 0.00 0.00 0.00 0.00 0.00 0.00 0.00 0.00 0.00 0.04 0.05 0.05 0.04 0.04 0.03 0.03 0.02 0.00 0.00 0.00 0.00 -0.00 0.00 -0.00 -0.00 -0.00 -0.00 -0.00 -0.00 -0.00 0.00 0.00 -0.00 -0.00 -0.00
-0.00 -0.00 -0.00 -0.00 -0.00 -0.00 0.00 0.00 0.00 0.00 0.00 0.00 0.00 0.00 0.00 0.00 0.00 0.00 0.00 0.00 0.00 0.00 0.00 0.00 0.00 0.00 0.00 0.00 0.00 0.00 0.00 0.00 0.00 0.00 0.00 0.00 0.00 0.00 0.00 0.00 0.00 0.01 0.01 0.03 0.05 0.05 0.04 0.04 0.03 0.03 0.02 0.00 0.00 0.00 0.00 0.00 0.00 -0.00 -0.00 -0.00 -0.00 -0.00 -0.00 -0.00 -0.00 -0.00 -0.00 -0.00 -0.00
-0.00 -0.00 -0.00 -0.00 -0.00 -0.00 0.00 0.00 0.00 0.00 0.00 0.00 0.00 0.00 0.00 0.00 0.00 0.00 0.00 0.00 0.00 0.00 0.00 0.00 0.00 0.00 0.00 0.00 0.00 0.00 0.00 0.00 0.00 0.00 0.00 0.00 0.00 0.00 0.00 0.00 0.00 0.01 0.01 0.02 0.04 0.04 0.03 0.03 0.03 0.03 0.01 0.01 0.00 0.00 0.00 0.00 0.00 -0.00 -0.00 -0.00 -0.00 -0.00 -0.00 -0.00 -0.00 -0.00 -0.00 -0.00 -0.00
-0.00 -0.00 -0.00 -0.00 -0.00 -0.00 0.00 0.00 0.00 0.00 0.00 0.00 0.00 0.00 0.00 0.00 0.00 0.00 0.00 0.00 0.00 0.00 0.00 0.00 0.00 0.00 0.00 0.00 0.00 0.00 0.00 0.00 0.00 0.00 0.00 0.00 0.00 0.00 0.00 0.00 0.00 0.00 0.00 0.02 0.04 0.04 0.03 0.02 0.01 0.01 0.01 0.00 0.00 0.00 0.00 0.00 0.00 -0.00 -0.00 -0.00 -0.00 -0.00 -0.00 -0.00 -0.00 -0.00 -0.00 -0.00 -0.00
0.00 0.00 0.00 0.00 0.00 0.00 0.00 0.00 0.00 0.00 0.00 0.00 0.00 0.00 0.00 0.00 0.00 0.00 0.00 0.00 0.00 0.00 0.00 0.00 0.00 0.00 0.00 0.00 0.00 0.00 0.00 0.00 0.00 0.00 0.00 0.00 0.00 0.00 0.00 0.00 0.00 0.00 0.00 0.01 0.03 0.03 0.02 0.02 0.01 0.01 0.01 -0.00 0.00 0.00 0.00 -0.00 -0.00 -0.00 -0.00 -0.00 -0.01 -0.00 -0.00 -0.00 -0.00 -0.00 -0.00 -0.00 -0.00
0.00 0.00 0.00 0.00 0.00 0.00 0.00 0.00 0.00 0.00 0.00 0.00 0.00 0.00 0.00 0.00 0.00 0.00 0.00 0.00 0.00 0.00 0.00 0.00 0.00 0.00 0.00 0.00 0.00 0.00 0.00 0.00 0.00 0.00 0.00 0.00 0.00 0.00 0.00 0.00 0.00 0.00 0.00 0.01 0.02 0.02 0.02 0.02 0.01 0.01 0.01 -0.00 -0.00 -0.00 -0.00 -0.00 -0.00 -0.00 -0.00 -0.01 -0.01 -0.00 -0.00 -0.01 -0.00 -0.00 -0.01 -0.01 -0.00